Omaha, IA

4:01 PM CST on November 11, 2019 (GMT -0600)
Eppley Airfield

Weather History for KOMA - October, 2019

Change the Weather History Date:

Monday, October 21, 2019

  Actual Average Record
Temperature  
Mean Temperature 49 °F 51 °F  
Max Temperature 55 °F 63 °F 90 °F (1947)
Min Temperature 42 °F 40 °F 20 °F (1913)
Degree Days  
Heating Degree Days 16 14  
Month to date heating degree days 242 221  
Since 1 July heating degree days 246 324  
Cooling Degree Days 0 0  
Month to date cooling degree days 0 12  
Year to date cooling degree days 1406 1109  
Moisture  
Dew Point 41 °F    
Average Humidity 78    
Maximum Humidity 96    
Minimum Humidity 63    
Precipitation  
Precipitation 0.05 in 0.07 in 1.18 in (1900)
Month to date precipitation 5.56 1.52  
Year to date precipitation 36.81 27.31  
Snow  
Snow 0.00 in 0.00 in - ()
Month to date snowfall 0.0 0.1  
Since 1 July snowfall 0.0 0.1  
Since 1 September snowfall 0.0 0.1  
Snow Depth 0.00 in    
Sea Level Pressure  
Sea Level Pressure 29.50 in    
Wind  
Wind Speed 13 mph ()    
Max Wind Speed 32 mph    
Max Gust Speed 46 mph    
Visibility 9.4 miles    
Events Rain    
T = Trace of Precipitation, MM = Missing Value Source: Averaged Metar Reports

Daily Weather History Graph

Daily Weather History Graph

Search for Another Location

Airport or City:

Astronomy

Oct. 21, 2019 Rise Set
Actual Time 7:41 AM CDT 6:33 PM CDT
Civil Twilight 7:13 AM CDT 7:01 PM CDT
Nautical Twilight 6:41 AM CDT 7:34 PM CDT
Astronomical Twilight 6:09 AM CDT 8:06 PM CDT
Moon No Moon Rise 3:02 PM CDT (10/21)
Length of Visible Light 11h 48m
Length of Day
10h 52m
Waning Gibbous, 48% of the Moon is Illuminated
Oct 21
Waning Gibbous
Oct 27
New
Nov 4
First Quarter
Nov 12
Full
Nov 19
Last Quarter

Hourly Weather History & Observations

Time (CDT) Temp. Windchill Dew Point Humidity Pressure Visibility Wind Dir Wind Speed Gust Speed Precip Events Conditions
1:52 AM 52.0 °F - 50.0 °F 93% 29.44 in 10.0 mi South 9.2 mph - N/A   Scattered Clouds
2:52 AM 51.1 °F - 48.9 °F 92% 29.43 in 10.0 mi South 5.8 mph - N/A   Partly Cloudy
3:52 AM 50.0 °F - 39.9 °F 68% 29.41 in 10.0 mi South 8.1 mph - N/A   Clear
4:52 AM 46.9 °F - 37.0 °F 68% 29.42 in 10.0 mi SW 9.2 mph - N/A   Clear
5:52 AM 45.0 °F 41.2 °F 37.0 °F 74% 29.40 in 10.0 mi WSW 6.9 mph - N/A   Clear
6:52 AM 43.0 °F 38.2 °F 37.0 °F 80% 29.39 in 10.0 mi WSW 8.1 mph 18.4 mph N/A   Clear
7:52 AM 43.0 °F 35.7 °F 37.9 °F 82% 29.36 in 10.0 mi WSW 15.0 mph - N/A   Partly Cloudy
8:35 AM 44.1 °F 36.8 °F 39.0 °F 82% 29.37 in 10.0 mi WSW 16.1 mph 24.2 mph N/A   Mostly Cloudy
8:52 AM 45.0 °F 38.9 °F 39.0 °F 80% 29.38 in 10.0 mi WSW 12.7 mph 20.7 mph N/A   Mostly Cloudy
9:52 AM 45.0 °F 39.3 °F 39.0 °F 80% 29.40 in 10.0 mi WSW 11.5 mph 23.0 mph N/A   Mostly Cloudy
10:52 AM 46.9 °F - 39.9 °F 77% 29.40 in 10.0 mi West 17.3 mph 26.5 mph N/A   Mostly Cloudy
11:52 AM 48.0 °F - 41.0 °F 77% 29.41 in 10.0 mi West 12.7 mph 26.5 mph N/A   Overcast
12:52 PM 51.1 °F - 42.1 °F 71% 29.41 in 10.0 mi West 12.7 mph 26.5 mph N/A   Overcast
1:52 PM 53.1 °F - 44.1 °F 71% 29.41 in 10.0 mi West 21.9 mph 32.2 mph N/A   Overcast
2:03 PM 54.0 °F - 43.0 °F 66% 29.41 in 10.0 mi West 21.9 mph 34.5 mph N/A   Mostly Cloudy
2:52 PM 52.0 °F - 39.9 °F 63% 29.44 in 10.0 mi West 21.9 mph 32.2 mph N/A   Mostly Cloudy
3:32 PM 52.0 °F - 43.0 °F 71% 29.47 in 10.0 mi West 21.9 mph 36.8 mph N/A   Mostly Cloudy
3:52 PM 51.1 °F - 43.0 °F 74% 29.48 in 10.0 mi West 24.2 mph 36.8 mph N/A   Mostly Cloudy
4:52 PM 48.9 °F - 44.1 °F 83% 29.51 in 6.0 mi West 18.4 mph 34.5 mph 0.00 in Rain Light Rain
5:52 PM 48.0 °F - 43.0 °F 83% 29.56 in 6.0 mi WNW 25.3 mph 35.7 mph 0.01 in Rain Light Rain
6:02 PM 48.0 °F - 43.0 °F 83% 29.56 in 6.0 mi WNW 20.7 mph 33.4 mph 0.01 in Rain Light Rain
6:52 PM 48.0 °F - 43.0 °F 83% 29.61 in 7.0 mi WNW 18.4 mph 31.1 mph 0.04 in Rain Light Rain
7:47 PM 46.4 °F 38.7 °F 42.8 °F 87% 29.63 in 10.0 mi WNW 20.7 mph 33.4 mph 0.00 in Rain Light Rain
7:52 PM 46.9 °F - 43.0 °F 86% 29.64 in 7.0 mi WNW 20.7 mph 33.4 mph 0.00 in Rain Light Rain
8:52 PM 46.9 °F - 39.9 °F 77% 29.65 in 10.0 mi WNW 28.8 mph 46.0 mph 0.00 in   Overcast
9:52 PM 46.9 °F - 39.9 °F 77% 29.69 in 10.0 mi WNW 25.3 mph 36.8 mph N/A   Overcast
10:52 PM 46.9 °F - 39.9 °F 77% 29.72 in 10.0 mi WNW 20.7 mph 34.5 mph N/A   Overcast
11:13 PM 46.9 °F - 39.9 °F 77% 29.71 in 10.0 mi WNW 21.9 mph 43.7 mph N/A   Mostly Cloudy
11:52 PM 46.9 °F - 39.0 °F 74% 29.73 in 10.0 mi WNW 25.3 mph 35.7 mph N/A   Mostly Cloudy